Weather past 2 weeks in Port-aux-Francais, French Southern Territories

Now
53 °F

Cool.


Feels Like: 51 °F
Forecast: 41 / 46 °F
Wind: 8 mph from West

Location: Port-Aux-Francais Iles Kerguelen

Current Time: Mar 1, 2015 at 8:30:31 PM

Latest Report: Mar 1, 2015 at 7:00 PM


Visibility: N/A

Pressure: 29.65 "Hg

Humidity: 62%

Dew point: 40 °F

Location of Port-aux-FrancaisLocation

Historic Weather in Port-aux-Francais — Graph

°F

Port-aux-Francais temperature yesterday

Maximum temperature yesterday: 53 °F (at 6:00 PM)
Minimum temperature yesterday: 37 °F (at 4:00 AM)
Average temperature yesterday: 45 °F

Past Weeks' High & Low Weather Summary

 TemperatureHumidityPressure
High64 °F (Feb 18, 12:00 PM)90% (Feb 18, 12:00 AM)30.20 "Hg (Feb 18, 12:00 AM)
Low35 °F (Feb 18, 12:00 AM)39% (Feb 18, 5:00 PM)29.23 "Hg (Feb 16, 5:00 AM)
Average47 °F69%29.83 "Hg
* Reported Feb 14 7:00 PM — Mar 1 7:00 PM, Port-aux-Francais, Weather by CustomWeather, © 2015

Note: Actual official high and low records may vary slightly from our data, if they occured in-between our weather recording intervals... More about our weather records

Advertising

Port-aux-Francais weather history for previous 24 hours

 ConditionsComfort  
Time TempWeatherWind HumidityBarometerVisibility
7:00 PM
Sun, Mar 1
53 °FCool.8 mph62%29.65 "HgN/A
6:00 PM54 °FCool.8 mph62%29.64 "HgN/A
5:00 PM57 °FRefreshingly cool.23 mph59%29.61 "HgN/A
4:00 PM60 °FRefreshingly cool.16 mph55%29.60 "HgN/A
3:00 PM61 °FRefreshingly cool.23 mph57%29.60 "HgN/A
2:00 PM61 °FRefreshingly cool.25 mph59%29.57 "HgN/A
1:00 PM60 °FCool.23 mph65%29.58 "HgN/A
12:00 PM62 °FCool.17 mph62%29.57 "HgN/A
11:00 AM58 °FCool.10 mph65%29.58 "HgN/A
10:00 AM57 °FCool.9 mph68%29.58 "HgN/A
9:00 AM57 °FCool.15 mph68%29.57 "HgN/A
7:00 AM52 °FCool.17 mph76%29.50 "HgN/A
6:00 AM52 °FCool.10 mph76%29.50 "HgN/A
5:00 AM55 °FCool.25 mph78%29.44 "HgN/A
4:00 AM54 °FCool.20 mph80%29.44 "HgN/A
3:00 AM52 °FCool.29 mph85%29.41 "HgN/A
2:00 AM52 °FCool.25 mph88%29.44 "HgN/A
1:00 AM53 °FCool.20 mph87%29.44 "HgN/A
12:00 AM51 °FCool.14 mph90%29.47 "HgN/A
11:00 PM
Sat, Feb 28
52 °FCool.21 mph90%29.47 "HgN/A
10:00 PM52 °FCool.22 mph89%29.47 "HgN/A
9:00 PM53 °FCool.23 mph87%29.47 "HgN/A
8:00 PM52 °FCool.17 mph86%29.50 "HgN/A
Weather by CustomWeather, © 2015

See weather overviewHow to use our weather pages